“In life, you're either a passenger or a pilot. It’s your choice.”

WELCOME TO YOUR AVIATION DREAM!

What's new Up There Icon

WHAT’S NEW HERE?

4000+ aviation terms, acronyms and definitions!
Make your study a little easier with the aviation glossaries that gather over 4000 terms and acronyms extracted from weather, communications, technical and more general topics…
Partnership Icon

PARTNESHIP ANNOUNCEMENT

I am proud to announce a partnership with nizul Logo, study partner of every pilot who wants to consolidate their ground school knowledge and master their written examination.

Try Me Icon

ALL YOURS FOR 30 MINUTES!

Not sure you’d get along with a freelance instructor? How about giving it a try with a 30 minute flight?
My treat! All free.

Resources Tool Box

STUDENT RESOURCES

As a registered student training with me, you get access to a whole lot of files, tools, documents, aviation glossaries, videos, quizzes, sample tests, etc… 

Control Tower Icon

QUESTIONS? CHECK F.A.Q.

In aviation, the only stupid question is the one you didn’t ask. And there is a big chance yours has already been answered in the FAQ. Check it out!

Brain Icon

ARE YOU WIRED FOR FLYING?

Flying an aircraft is usually not the most difficult part of the “problem” and it takes a certain mindset to deal with the other aspects of a flight. Find out wether…

THEY DID IT!

Meet those who refused to be the passengers of their lives, and learn about their experience.

QUICK FACTS

Aviation is a world of serious numbers.
Here are my own, and they count as much as the other ones.

0
YEARS OF
WISDOM
0
YEARS OF
SKY FUN
0
AMAZING
STUDENTS
0
HOURS OF
PURE EXCITEMENT

Grow some wings,
Come fly with me!

Vancouver Island Weather

METARs and TAFs.
VICTORIA INTL (CYYJ)
METAR:

CYYJ 270100Z 01005KT 350V060 30SM FEW250 31/08 A2998 RMK CI2 SLP153 DENSITY ALT 1900FT

TAF:

TAF CYYJ 261740Z 2618/2718 VRB03KT P6SM SKC BECMG 2618/2620 02007KT BECMG 2704/2706 27005KT RMK NXT FCST BY 270000Z

NANAIMO (CYCD)
METAR:

CYCD 270100Z 01008KT 30SM FEW250 29/10 A3000 RMK CI2 SLP160 DENSITY ALT 1700FT

TAF:

TAF CYCD 261740Z 2618/2704 03005KT P6SM SCT240 RMK NXT FCST BY 270000Z

LONG BEACH (CYAZ)
METAR:

CYAZ 270100Z 30009G15KT 15SM FEW240 28/10 A2999 RMK CI1 CI TR LAST STFD OBS/NXT 271300UTC SLP156 DENSITY ALT 1600FT

TAF:

TAF CYAZ 261840Z 2619/2701 22005KT P6SM SKC BECMG 2621/2623 30008KT RMK NXT FCST BY 271500Z

For more in-depth weather information, please, check Collaborative Flight Planning Service

For all Runway conditions in CYYJ, please check

IIDS Web View

Windy’s Forecast & Observations